Weather Roundup
Issued by NWS Chicago, IL

Home | Current Version | Previous Version | Graphics & Text | Print | Product List | Glossary On
Versions: 1 2 3 4 5 6 7 8 9 10 11 12 13 14 15 16 17 18 19 20 21 22 23 24 25 26 27 28 29 30 31 32 33 34 35 36 37 38 39 40 41 42 43 44 45 46 47 48 49 50
000
NZUS59 KLOT 270603
HRRLOT

CHICAGO AREA WEATHER ROUNDUP
NATIONAL WEATHER SERVICE CHICAGO/ROMEOVILLE IL
100 AM CDT WED JUL 27 2016

NOTE: "FAIR" INDICATES FEW OR NO CLOUDS BELOW 12,000 FEET WITH NO
SIGNIFICANT WEATHER AND/OR OBSTRUCTIONS TO VISIBILITY.

* THESE STATIONS ARE NOT UNDER NWS QUALITY CONTROL. THEY ALSO MAY NOT
  REPORT WEATHER SUCH AS PRECIPITATION OR FOG.

ILZ005-006-012>014-019>023-270700-
NORTHEAST ILLINOIS

CITY           SKY/WX    TMP DP  RH WIND       PRES   REMARKS
OHARE          CLEAR     74  63  68 SW3       30.00F
6HR MIN TEMP:  72; 6HR MAX TEMP:  83;

MIDWAY         CLEAR     77  61  57 CALM      30.00F
6HR MIN TEMP:  77; 6HR MAX TEMP:  84;

AURORA         CLEAR     69  66  90 CALM      30.01F
6HR MIN TEMP:  68; 6HR MAX TEMP:  83;

LANSING*       CLEAR     69  63  80 S3        30.01F
WAUKEGAN       CLEAR     67  64  90 CALM      30.00S
6HR MIN TEMP:  66; 6HR MAX TEMP:  80;

DUPAGE AIRPORT CLEAR     70  64  81 CALM      30.00F
6HR MIN TEMP:  70; 6HR MAX TEMP:  83;

WHEELING       CLEAR     71  64  78 CALM      30.01F
6HR MIN TEMP:  70; 6HR MAX TEMP:  82;

KANKAKEE*      CLEAR     70  69  95 CALM      30.02F
MORRIS*        CLEAR     70  67  90 CALM      30.00F
NORTHERLY ISL    N/A     75  63  66 CALM        N/A
$$

WIZ051-052-058>065-066-070>072-270700-
SOUTHEAST WISCONSIN

CITY           SKY/WX    TMP DP  RH WIND       PRES   REMARKS
MILWAUKEE      CLEAR     74  64  71 SW6       29.99F
6HR MIN TEMP:  74; 6HR MAX TEMP:  82;

KENOSHA*       CLEAR     68  63  84 CALM      30.01F
RACINE*        CLEAR     71  63  75 W5        30.01F
BURLINGTON     CLEAR     64  63  96 CALM      30.01F
WAUKESHA       CLEAR     64  61  88 CALM      30.01F
$$

INZ001>003-010>013-019-020-270700-
NORTHWEST INDIANA

CITY           SKY/WX    TMP DP  RH WIND       PRES   REMARKS
GARY*          CLEAR     67  67 100 CALM      30.01F
6HR MIN TEMP:  67; 6HR MAX TEMP:  81;

MICHIGAN CITY* NOT AVBL
RENSSELAER*    NOT AVBL
VALPARAISO     CLEAR     69  64  84 CALM      30.02F
$$

LMZ740>746-270700-
SOUTHERN LAKE MICHIGAN

STATION/POSITION TIME  SKY/WX   TEMP WIND        PRES    VSBY
                                AIR  DIR/SP/G
                 (UTC)          (F)  (DEG/KT/KT) (MB)    (MI)
HARRISON CRIB    0510            75  190/  8/  9   N/A
BURNHAM HARBOR   0600            75  210/  1/  5   N/A
CALUMET HARBOR   0500            75  140/  1/  3 1015.7F
BURNS HARBOR     0500            75  170/  2/  4 1016.9S
MICHIGAN CITY    0500            73  130/  2/  3   N/A
$$

ABBREVIATIONS USED IN REMARKS
   TC - TEMPERATURE IN CELSIUS
  WCI - WIND CHILL INDEX
   HX - HEAT INDEX
  VSB - VISIBILITY
$$




USA.gov is the U.S. government's official web portal to all federal, state and local government web resources and services.